KEPLER-4 (ANTILLES) (46499 NORAD) Tracking and Keplerian Element Data

This shows tracking and keplerian element data for the satellite.

Feedback or suggestion? Click here.




ElementValue
Catalog46499
NameKEPLER-4 (ANTILLES)
Epoch Orbit959
Epoch Day336.88971434
Epoch Year2020
RAAN269.6845
Inclination97.6748
Eccentricity0.0014188
Argument of Perigee42.3657
Mean Anonmoly317.8663
Mean Motion15.02354905
Decay Rate2.376E-05
L11 46499U 20068P 20336.88971434 .00002376 00000-0 18390-3 0 9998
L22 46499 97.6748 269.6845 0014188 42.3657 317.8663 15.02354905 9595

Live tracking and technical data element details for KEPLER-4 (ANTILLES) (NORAD 46499). KEPLER-4 (ANTILLES) can be tracked NOW for your location showing map with azimuth and elevation plus other details from your city location.

Track the satellite on the map from your city or location and see movement details for azimuth, elevation, latitude, longitude, range, height, and movement on the map or in text.







IsCatalogInMostPopularTable: catalog: 46499, numindb: 20
Update: records affected: 1



GetName: 46499 KEPLER-4 (ANTILLES)

Hit Count: updated at: Wed, 02 Dec 2020 18:38:09 GMT